Elko, NV

4:23 AM PST on January 19, 2018 (GMT -0800)
Elko Regional

Weather History for KEKO - October, 2011

Change the Weather History Date:

Tuesday, October 4, 2011

  Actual Average Record
Temperature  
Mean Temperature 60 °F 51 °F  
Max Temperature 70 °F 70 °F 88 °F (1980)
Min Temperature 50 °F 32 °F 8 °F (1898)
Degree Days  
Heating Degree Days 5 14  
Month to date heating degree days 5 53  
Since 1 July heating degree days 77 311  
Cooling Degree Days 0 0  
Month to date cooling degree days 8 0  
Year to date cooling degree days 468 383  
Growing Degree Days 9 (Base 50)    
Moisture  
Dew Point 47 °F    
Average Humidity 64    
Maximum Humidity 89    
Minimum Humidity 39    
Precipitation  
Precipitation 0.10 in 0.02 in 0.40 in (1901)
Month to date precipitation 0.10 0.08  
Year to date precipitation 6.49 6.93  
Snow  
Snow 0.00 in 0.00 in 2.00 in (1912)
Month to date snowfall 0.0 0.0  
Since 1 July snowfall 0.0 0.1  
Since 1 September snowfall 0.0 0.1  
Snow Depth 0.00 in    
Sea Level Pressure  
Sea Level Pressure 29.70 in    
Wind  
Wind Speed 8 mph (South)    
Max Wind Speed 36 mph    
Max Gust Speed 48 mph    
Visibility 9 miles    
Events Rain    
T = Trace of Precipitation, MM = Missing Value Source: NWS Daily Summary

Daily Weather History Graph

Daily Weather History Graph

Search for Another Location

Airport or City:

Trip Planner

Search our weather history database for the weather conditions in past years. The results will help you decide how hot, cold, wet, or windy it might be!

Date:

Astronomy

Oct. 04, 2011 Rise Set
Actual Time 6:42 AM PDT 6:20 PM PDT
Civil Twilight 6:15 AM PDT 6:47 PM PDT
Nautical Twilight 5:43 AM PDT 7:19 PM PDT
Astronomical Twilight 5:11 AM PDT 7:51 PM PDT
Moon 2:27 PM PDT (10/4) No Moon Set
Length of Visible Light 12h 32m
Length of Day
11h 37m
First Quarter, 57% of the Moon is Illuminated
Oct 4
First Quarter
Oct 11
Full
Oct 19
Last Quarter
Oct 26
New
Nov 2
First Quarter

Hourly Weather History & Observations

Time (PDT) Temp. Dew Point Humidity Pressure Visibility Wind Dir Wind Speed Gust Speed Precip Events Conditions
12:56 AM 63.0 °F 45.0 °F 52% 29.69 in 10.0 mi South 11.5 mph 19.6 mph N/A   Mostly Cloudy
1:56 AM 55.0 °F 48.9 °F 80% 29.74 in 7.0 mi SSE 31.1 mph 44.9 mph 0.00 in Rain Light Rain
2:56 AM 53.1 °F 48.0 °F 83% 29.73 in 10.0 mi SW 5.8 mph 16.1 mph 0.02 in   Scattered Clouds
3:56 AM 52.0 °F 46.0 °F 80% 29.73 in 10.0 mi SW 5.8 mph - N/A   Scattered Clouds
4:56 AM 51.1 °F 46.9 °F 86% 29.73 in 10.0 mi North 3.5 mph - N/A   Overcast
5:56 AM 52.0 °F 46.9 °F 83% 29.74 in 10.0 mi NE 8.1 mph - N/A   Clear
6:56 AM 50.0 °F 46.0 °F 86% 29.76 in 10.0 mi ENE 6.9 mph - N/A   Scattered Clouds
7:56 AM 51.1 °F 46.9 °F 86% 29.78 in 10.0 mi East 5.8 mph - N/A   Clear
8:56 AM 55.0 °F 48.0 °F 77% 29.77 in 10.0 mi East 5.8 mph - N/A   Partly Cloudy
9:56 AM 57.9 °F 48.0 °F 70% 29.76 in 10.0 mi NNE 6.9 mph - N/A   Mostly Cloudy
10:56 AM 66.9 °F 46.0 °F 47% 29.69 in 10.0 mi South 15.0 mph 24.2 mph N/A   Partly Cloudy
11:56 AM 68.0 °F 42.1 °F 39% 29.67 in 10.0 mi South 16.1 mph 26.5 mph N/A   Partly Cloudy
12:56 PM 55.9 °F 46.0 °F 69% 29.72 in 7.0 mi SW 21.9 mph 31.1 mph 0.00 in Rain Light Rain
1:56 PM 57.0 °F 46.9 °F 69% 29.71 in 10.0 mi Calm Calm - 0.02 in   Overcast
2:56 PM 59.0 °F 48.0 °F 67% 29.69 in 10.0 mi SSE 6.9 mph - 0.01 in   Overcast
3:56 PM 61.0 °F 45.0 °F 56% 29.67 in 10.0 mi South 10.4 mph 17.3 mph N/A   Partly Cloudy
4:56 PM 61.0 °F 46.0 °F 58% 29.65 in 10.0 mi Variable 4.6 mph - N/A   Overcast
5:47 PM 55.4 °F 48.2 °F 77% 29.75 in 2.5 mi West 9.2 mph - 0.03 in Rain Light Rain
5:54 PM 55.4 °F 50.0 °F 82% 29.75 in 8.0 mi West 6.9 mph - 0.04 in Rain Light Rain
5:56 PM 55.4 °F 50.0 °F 82% 29.75 in 8.0 mi West 6.9 mph - N/A Rain Light Rain
6:56 PM 55.0 °F 51.1 °F 86% 29.65 in 10.0 mi Calm Calm - 0.01 in   Scattered Clouds
7:56 PM 53.1 °F 50.0 °F 89% 29.64 in 10.0 mi East 3.5 mph - N/A   Overcast
8:56 PM 55.9 °F 48.9 °F 77% 29.62 in 10.0 mi Variable 3.5 mph - N/A   Partly Cloudy
9:56 PM 53.6 °F 46.4 °F 77% 29.69 in 10.0 mi Calm Calm - N/A   Clear
10:56 PM 54.0 °F 44.1 °F 69% 29.56 in 10.0 mi South 10.4 mph - N/A   Scattered Clouds
11:56 PM 54.0 °F 43.0 °F 66% 29.55 in 10.0 mi South 11.5 mph - N/A   Overcast